Weather in Sangole

India     17°26′12″N   75°11′45″E
temp.,
°C
wind,
m/s
gust,
m/s
humid.,
%
clouds,
%
prec.,
mm/h
press.,
hPa
HPBL,
m
19 april, mon
mon1923:30+34nw571945 0.0 1010198
02:30+30wsw57275 0.0 1009138
05:30+28wsw45460 0.0 1010106
08:30+32nw57254 0.0 1011755
11:30+37n65150 0.0 10102568
14:30+38nnw33140 0.0 10063891
17:30+38nw33135 0.0 10044167
20:30+36nnw351525 0.0 100699
20 april, tue
tue2023:30+32wnw610325 0.0 1008579
02:30+30nw611305 0.0 1007466
05:30+27nw510394 0.0 1008344
08:30+30nw79301 0.0 1010657
11:30+36nnw66184 0.0 10091700
14:30+38nw42145 0.0 10053603
17:30+38wnw221413 0.0 10044023
20:30+36nnw22162 0.0 100629
21 april, wed
wed2123:30+32nw610295 0.0 1008456
02:30+30nw593420 0.0 1007341
05:30+28nnw7133746 0.0 1009382
08:30+30nnw683035 0.0 1011540
11:30+36nnw551798 0.0 10101779
14:30+39nnw431399 0.0 10064004
17:30+39nw4312100 0.0 10054279
20:30+36nw5816100 0.0 1007189
22 april, thu
thu2223:30+32nw9143046 0.0 1008546
02:30+29nnw6112919 0.0 1008365
05:30+29nw5102995 0.0 1009357
08:30+33n791839 0.0 1011876
11:30+37nne661517 0.0 10102588
14:30+39nne531380 0.0 10064197
17:30+39n441213 0.0 10044337
20:30+37n461521 0.0 1007420
23 april, fri
fri2323:30+33nw5821100 0.0 1009667
02:30+31nw5724100 0.0 1007218
05:30+30nw3530100 0.0 1008106
08:30+33nne3326100 0.0 1010498
11:30+37ene351884 0.0 10092267
14:30+39e2314100 0.0 10053755
17:30+39ne221487 0.0 10044000
20:30+37e121821 0.0 1006265